Wind_Speed
17 16 16 16 17 17 17 17 18 18 18 19 19 18 18 18 19 20 20 21 21 21 21 21 21 21 21 22 22 22 23 22 22 22 23 23 24 24 23 23 23 23 22
18 18 18 18 17 17 17 18 18 19 19 19 19 19 19 19 20 19 19 21 21 22 22 22 22 22 23 23 23 23 22 22 22 22 23 24 24 24 24 24 23 23 23
19 19 19 18 18 18 18 18 19 19 20 20 20 19 19 20 20 20 20 20 20 21 22 23 23 22 22 23 23 23 22 22 23 23 24 24 24 25 25 25 24 24 24
20 20 20 19 19 19 19 20 20 20 21 21 21 20 20 20 20 20 20 19 19 20 21 21 22 22 22 22 22 22 22 23 24 24 24 24 25 24 25 25 25 25 24
21 20 20 20 20 20 21 21 21 21 21 21 21 20 21 20 20 21 21 20 20 20 21 21 21 21 21 21 22 22 23 24 24 23 24 24 24 25 24 25 24 25 25
21 21 21 21 21 21 21 22 22 22 22 21 21 21 21 21 21 21 21 21 21 21 22 22 22 21 20 21 22 22 23 24 24 24 24 25 25 25 25 25 24 24 25
22 22 22 22 22 22 23 23 23 23 23 22 22 21 22 22 22 21 21 21 21 21 22 23 23 22 21 21 22 22 23 23 23 23 24 24 24 25 25 25 25 24 24
24 23 23 23 23 23 23 24 24 24 23 23 23 23 24 24 23 23 23 22 22 22 22 23 23 22 22 23 23 23 23 23 23 24 25 25 24 24 24 24 24 23 23
25 24 25 25 25 25 25 25 25 25 25 25 24 25 24 25 24 24 24 23 22 22 22 23 23 23 23 24 24 24 24 24 24 25 25 24 24 24 24 24 23 23 23
25 25 25 25 26 26 26 26 26 26 25 25 25 25 26 26 25 24 23 23 23 23 23 23 24 24 24 24 24 24 24 24 24 25 24 25 24 24 24 23 23 23 22
27 27 27 26 26 27 27 26 26 26 26 26 26 25 26 25 25 25 24 24 24 24 24 24 24 24 25 25 25 24 24 24 24 24 24 23 23 23 23 23 22 22 22
28 27 27 27 27 28 27 27 27 27 27 26 26 25 25 24 25 25 24 24 24 24 24 25 25 24 24 24 24 24 24 24 24 23 23 23 22 23 23 22 21 21 21
28 28 28 28 28 28 28 28 28 28 27 26 26 25 24 24 25 25 25 25 25 24 24 24 24 24 23 23 24 24 24 23 23 22 22 23 23 23 23 22 22 21 21
28 28 28 29 29 28 28 29 29 28 27 27 26 25 25 25 25 25 25 25 24 25 25 24 24 24 24 24 24 23 23 23 22 22 22 22 23 23 23 23 22 22 21
29 29 28 29 29 29 28 29 28 28 27 26 26 26 25 24 24 25 25 25 25 25 25 25 24 23 24 24 24 24 23 22 22 21 21 22 22 22 21 21 21 22 21
30 29 29 29 29 29 28 29 29 28 27 26 26 25 25 25 24 24 25 25 25 25 24 24 23 23 23 24 24 24 23 22 21 21 21 21 21 21 20 20 20 20 20
29 29 29 29 29 28 29 29 27 27 26 25 25 26 26 25 25 25 25 25 26 26 25 24 23 23 23 24 24 24 23 22 22 21 21 21 21 20 20 20 20 20 20
29 29 28 28 29 29 28 27 27 26 25 25 26 26 26 26 26 26 25 25 25 24 23 22 22 22 23 23 23 22 22 22 22 21 21 21 20 21 21 21 20 20 20
29 29 28 28 28 27 26 26 26 25 25 24 25 25 25 25 25 25 25 25 24 23 22 22 22 21 22 23 22 22 21 21 21 21 21 22 22 22 22 21 21 21 21
28 29 28 28 27 26 25 25 24 24 24 24 24 24 24 24 25 25 24 24 23 23 23 23 22 21 22 22 23 23 22 21 21 20 20 21 22 22 22 21 21 21 21
28 27 27 28 27 26 25 25 25 25 25 24 24 24 24 24 25 24 24 23 23 23 22 22 22 22 22 23 23 23 23 21 21 20 20 21 21 21 22 22 22 22 22
26 26 26 25 24 24 24 25 25 25 24 23 23 23 23 23 24 23 23 23 22 22 22 21 20 20 21 21 21 21 21 21 21 21 22 22 21 22 22 21 21 22 22
24 24 23 23 23 23 23 23 22 22 22 23 22 21 22 22 22 22 21 20 20 19 19 19 19 19 20 20 21 21 21 22 22 22 22 22 22 22 22 22 22 22 23
22 22 22 22 22 22 21 21 21 21 20 20 19 19 19 18 18 18 17 16 16 17 17 18 19 20 20 21 21 21 21 21 21 22 22 22 23 23 23 23 23 23 23
20 20 19 19 20 21 21 20 19 18 17 17 18 18 17 17 18 18 17 16 17 17 18 17 18 18 19 20 20 20 20 20 20 21 22 22 22 22 23 23 23 24 23
18 18 18 18 19 20 20 19 18 17 17 17 18 18 18 18 18 18 18 17 18 18 18 17 17 18 19 19 19 19 19 20 20 21 21 22 22 22 23 23 23 23 23
Wind_Direction
293 292 292 294 295 293 294 292 291 291 290 287 288 288 287 285 284 282 279 278 273 271 272 272 273 273 271 270 270 270 268 267 267 268 269 269 269 269 269 270 270 270 271
288 290 290 291 293 293 292 294 294 292 290 289 288 289 287 285 285 286 283 282 275 273 274 276 276 275 274 273 271 271 270 268 268 269 271 271 270 269 268 269 271 271 270
285 287 289 292 293 294 293 293 293 292 290 287 287 289 288 285 284 285 283 283 281 280 279 278 276 276 277 275 273 271 270 269 269 270 271 271 270 270 269 269 270 270 270
285 286 287 290 292 294 295 294 295 296 295 291 288 288 287 286 285 284 283 284 283 284 284 282 279 276 275 274 273 272 272 271 271 270 269 270 270 271 271 271 270 269 269
286 289 289 290 290 291 294 295 296 298 300 298 293 291 291 289 285 284 284 283 283 283 284 284 282 278 277 275 274 274 273 272 272 271 269 270 270 271 273 273 271 270 269
288 288 289 290 291 291 291 293 295 295 297 299 296 294 293 291 287 284 281 281 283 284 283 282 280 280 281 278 276 275 275 273 272 272 272 272 273 273 274 274 272 271 270
289 289 288 289 289 290 290 291 292 293 294 295 296 295 296 294 290 286 283 282 283 285 284 283 280 280 280 280 278 275 275 274 273 273 273 274 274 275 275 275 274 272 270
291 291 291 290 289 289 291 290 288 288 290 291 293 293 292 292 288 286 284 283 283 283 283 283 282 281 281 281 279 277 275 275 274 273 273 272 272 273 275 276 274 272 271
289 290 290 290 289 289 291 291 291 289 287 288 289 291 290 290 288 285 285 283 283 283 283 282 281 281 280 280 279 278 277 277 277 275 273 272 272 272 273 273 273 273 272
287 288 289 290 290 290 290 291 291 292 289 289 290 292 290 289 287 284 284 285 284 282 281 281 281 280 280 280 279 278 278 277 276 274 273 272 271 271 272 271 271 271 271
287 286 286 288 288 288 288 288 289 291 291 292 292 292 292 287 287 287 287 289 288 284 279 279 280 279 279 279 279 277 276 276 274 272 271 272 272 272 272 271 270 270 271
287 288 287 287 287 287 286 286 288 290 291 292 293 293 292 288 287 287 287 289 289 287 284 281 280 278 277 278 278 277 277 277 274 270 270 271 271 272 272 270 270 270 272
286 287 287 286 285 285 285 285 287 289 290 291 291 291 290 288 288 286 287 287 288 289 286 281 280 279 277 277 277 278 277 274 271 269 269 269 270 271 271 270 267 270 273
287 286 287 288 285 283 284 284 285 287 289 289 291 290 289 288 288 287 288 288 288 289 288 283 280 279 277 276 275 276 275 272 270 269 268 268 270 272 271 269 268 270 274
286 286 286 287 285 283 284 284 285 285 286 287 288 289 290 289 286 287 288 288 289 288 287 284 281 280 278 277 275 274 275 275 271 268 268 269 270 271 272 272 272 273 273
284 284 283 284 285 285 284 285 285 284 285 285 286 286 288 290 289 289 289 287 288 287 286 285 282 278 276 275 274 273 274 274 270 268 268 269 268 269 271 272 273 273 272
281 282 283 284 285 285 284 284 283 284 284 284 284 284 285 287 288 287 287 286 285 285 285 283 282 277 275 276 275 273 272 270 268 268 267 269 269 268 271 272 273 273 272
278 279 282 284 284 285 285 282 282 283 283 282 283 284 283 285 286 285 285 286 285 286 284 280 280 278 276 276 277 275 274 271 268 267 267 267 269 270 270 272 272 271 271
276 277 279 283 285 284 283 283 283 283 281 281 283 283 284 285 285 286 286 284 284 284 282 279 278 277 277 275 275 275 275 272 268 266 267 268 270 272 271 271 272 270 270
275 277 278 280 282 281 282 282 281 281 280 281 281 282 282 283 284 285 286 285 283 281 280 278 276 275 276 274 273 273 273 271 267 266 269 270 272 274 273 273 272 271 271
275 276 277 278 280 280 279 279 279 279 279 280 281 281 282 283 284 285 284 283 281 280 281 278 274 273 273 274 275 274 273 270 267 267 268 270 272 272 272 272 272 272 271
276 279 280 280 281 281 280 279 279 278 278 279 282 282 283 285 286 287 286 282 280 279 279 279 277 273 274 277 277 275 273 271 270 269 269 271 273 272 273 272 273 273 271
281 283 284 281 282 284 283 282 282 280 279 280 280 282 285 287 288 290 290 285 282 282 281 279 276 274 274 275 276 275 272 269 269 270 270 271 271 271 271 272 274 276 273
285 286 285 283 281 282 284 283 283 282 282 283 283 285 287 290 293 294 293 288 285 284 282 280 278 277 277 276 275 275 273 271 270 269 270 269 269 270 270 271 274 274 273
287 285 284 282 282 283 286 287 286 284 283 286 287 286 285 286 289 292 290 287 287 287 284 283 282 281 281 281 278 276 272 270 269 269 268 268 267 267 269 271 273 273 273
291 288 286 285 284 286 288 288 287 284 284 288 286 286 286 285 288 289 290 287 287 286 284 283 283 284 285 284 281 277 274 272 271 270 268 267 266 266 268 271 272 272 272
Height
5849 5847 5846 5845 5844 5842 5841 5840 5838 5837 5836 5834 5833 5832 5830 5829 5828 5827 5826 5825 5824 5824 5823 5823 5823 5822 5821 5821 5821 5820 5820 5820 5820 5820 5819 5819 5819 5819 5819 5819 5819 5819 5819
5844 5843 5842 5841 5839 5838 5836 5835 5833 5832 5831 5830 5828 5827 5825 5824 5823 5821 5820 5819 5818 5818 5817 5816 5816 5815 5815 5814 5814 5814 5813 5813 5813 5814 5813 5813 5812 5812 5812 5812 5812 5813 5813
5839 5838 5837 5835 5834 5833 5831 5830 5828 5827 5825 5824 5823 5821 5819 5818 5817 5816 5815 5813 5812 5811 5811 5810 5809 5809 5808 5807 5807 5807 5806 5806 5806 5807 5806 5806 5805 5805 5805 5805 5806 5806 5806
5834 5833 5832 5830 5829 5827 5826 5824 5823 5821 5820 5818 5816 5815 5813 5812 5811 5809 5808 5807 5806 5805 5804 5804 5803 5802 5801 5800 5800 5800 5800 5799 5799 5799 5799 5799 5799 5798 5798 5799 5798 5798 5799
5829 5828 5826 5825 5823 5822 5820 5819 5817 5816 5814 5812 5810 5809 5807 5806 5804 5803 5802 5801 5800 5799 5798 5797 5796 5795 5794 5794 5793 5793 5793 5792 5792 5792 5792 5792 5792 5792 5791 5791 5791 5791 5791
5823 5822 5821 5819 5818 5816 5815 5813 5811 5810 5808 5806 5804 5803 5801 5800 5798 5797 5796 5795 5794 5793 5792 5791 5790 5789 5788 5787 5787 5786 5786 5785 5785 5785 5785 5785 5785 5784 5784 5784 5784 5784 5785
5817 5816 5814 5813 5812 5810 5808 5807 5805 5803 5801 5800 5798 5797 5795 5793 5792 5791 5789 5788 5787 5786 5786 5785 5783 5783 5781 5781 5780 5779 5778 5778 5778 5778 5778 5778 5778 5777 5777 5777 5777 5777 5777
5810 5809 5808 5806 5805 5804 5802 5800 5799 5797 5795 5793 5791 5790 5789 5787 5785 5784 5783 5782 5781 5780 5778 5777 5776 5775 5774 5773 5773 5772 5771 5770 5770 5771 5771 5770 5770 5770 5770 5770 5770 5770 5770
5804 5803 5801 5800 5798 5796 5795 5793 5791 5789 5788 5786 5784 5783 5782 5780 5779 5777 5776 5775 5774 5773 5771 5770 5769 5768 5767 5766 5765 5764 5763 5763 5762 5762 5763 5763 5763 5763 5763 5763 5763 5763 5763
5797 5795 5794 5792 5791 5789 5788 5786 5784 5782 5780 5779 5777 5776 5774 5773 5771 5770 5769 5768 5767 5765 5764 5762 5761 5760 5759 5758 5757 5756 5756 5755 5755 5755 5755 5755 5755 5756 5755 5756 5755 5755 5755
5789 5787 5786 5785 5783 5781 5780 5778 5777 5775 5773 5772 5770 5769 5767 5765 5764 5763 5761 5760 5759 5758 5756 5755 5753 5752 5751 5750 5748 5748 5748 5747 5747 5747 5747 5747 5748 5748 5748 5748 5748 5748 5748
5781 5779 5778 5777 5775 5773 5772 5770 5769 5767 5766 5764 5763 5761 5759 5758 5756 5755 5754 5752 5751 5749 5748 5747 5745 5744 5743 5742 5741 5740 5739 5739 5739 5739 5739 5740 5740 5741 5741 5741 5741 5741 5741
5773 5771 5770 5768 5766 5765 5763 5762 5760 5759 5758 5757 5755 5753 5752 5750 5748 5747 5746 5744 5742 5741 5739 5738 5737 5736 5735 5735 5734 5732 5732 5731 5731 5731 5732 5733 5733 5734 5734 5734 5734 5734 5734
5764 5763 5761 5759 5757 5756 5754 5753 5752 5751 5749 5748 5747 5746 5744 5743 5741 5739 5737 5736 5734 5733 5731 5730 5729 5728 5728 5727 5726 5725 5724 5724 5724 5725 5725 5726 5726 5726 5726 5727 5727 5726 5726
5756 5754 5752 5751 5748 5747 5746 5744 5743 5742 5741 5740 5739 5738 5737 5735 5733 5732 5730 5729 5727 5725 5723 5722 5722 5721 5720 5720 5719 5718 5718 5717 5717 5718 5718 5719 5719 5719 5720 5720 5720 5720 5719
5747 5745 5744 5742 5740 5739 5738 5736 5735 5734 5732 5732 5731 5730 5729 5728 5726 5724 5722 5721 5719 5718 5716 5715 5714 5713 5713 5712 5711 5711 5711 5711 5711 5711 5712 5712 5712 5713 5713 5713 5713 5713 5713
5738 5737 5735 5734 5732 5730 5729 5727 5726 5725 5724 5723 5722 5721 5720 5719 5718 5716 5715 5713 5712 5710 5709 5708 5707 5706 5706 5705 5705 5704 5704 5704 5704 5704 5705 5706 5706 5706 5706 5707 5707 5707 5707
5729 5728 5726 5725 5723 5722 5720 5719 5718 5717 5716 5715 5714 5713 5711 5710 5709 5708 5706 5705 5704 5702 5701 5701 5701 5700 5699 5698 5698 5698 5698 5698 5698 5698 5699 5699 5699 5699 5700 5700 5700 5700 5701
5719 5719 5717 5716 5714 5713 5712 5711 5710 5708 5708 5707 5706 5704 5703 5702 5700 5699 5698 5697 5696 5695 5694 5694 5694 5693 5693 5692 5692 5692 5691 5691 5691 5692 5692 5692 5692 5693 5693 5693 5694 5694 5694
5710 5710 5709 5708 5706 5705 5704 5703 5702 5700 5700 5699 5698 5697 5695 5694 5693 5691 5690 5689 5688 5688 5687 5687 5687 5686 5686 5686 5685 5685 5685 5685 5685 5686 5686 5686 5686 5686 5686 5687 5687 5687 5687
5702 5701 5700 5699 5698 5697 5696 5695 5694 5693 5692 5691 5690 5689 5687 5686 5685 5683 5682 5681 5681 5680 5680 5680 5680 5680 5680 5679 5679 5679 5679 5678 5679 5679 5680 5680 5680 5680 5680 5680 5680 5680 5680
5694 5693 5692 5691 5690 5689 5688 5687 5686 5685 5684 5683 5683 5681 5680 5679 5677 5675 5674 5673 5673 5673 5673 5673 5673 5673 5673 5673 5673 5672 5672 5672 5672 5672 5673 5673 5673 5673 5674 5674 5673 5673 5673
5687 5686 5684 5684 5683 5682 5681 5680 5679 5678 5677 5676 5675 5674 5673 5672 5670 5669 5667 5666 5666 5667 5666 5667 5667 5667 5667 5667 5666 5666 5665 5665 5665 5665 5666 5666 5666 5667 5667 5667 5667 5666 5666
5679 5678 5678 5677 5676 5676 5675 5674 5673 5672 5671 5670 5669 5668 5667 5666 5665 5663 5662 5662 5661 5661 5661 5661 5661 5661 5661 5660 5659 5659 5658 5658 5658 5658 5658 5659 5659 5659 5660 5660 5660 5659 5658
5673 5672 5671 5671 5670 5670 5669 5668 5667 5666 5665 5664 5663 5663 5661 5661 5660 5659 5658 5657 5657 5656 5656 5655 5655 5655 5654 5653 5652 5652 5651 5651 5651 5651 5651 5651 5652 5652 5652 5652 5652 5652 5652
5667 5666 5666 5665 5664 5664 5663 5662 5661 5660 5660 5659 5658 5657 5656 5656 5655 5654 5653 5652 5651 5651 5650 5650 5649 5649 5648 5647 5646 5645 5644 5643 5643 5643 5644 5644 5644 5645 5645 5645 5645 5645 5645